INMARSAT 5-F3

Last updated on Thu Nov 21 2024 00:02:43 GMT+0000 (Coordinated Universal Time)

1 40882U 15042A 24324.66545706 .00000051 00000+0 00000+0 0 9992 2 40882 0.0223 50.0910 0000634 138.9502 289.2913 1.00269483 33808
UTC large
Height (km)
Speed (km/s)
/
Latitude / Longitude
Inclination (degrees)
Orbital Period (minutes)
Azimuth
Elevation
Range (km)
Doppler Factor

Next 0 passes for location: London (51.5072 / 0.1276)

Sorry there are no passes over London.